Torna al catalogo

COSMOS 1275 DEB

AttivoPO
NORAD 18592·DEBRIS·🇷🇺 Russia

Lanciato Jun 4, 1981 da Plesetsk Cosmodrome

Loading…

Prossimi Passaggi (prossime 24 ore)

TLE

AggiornatoSource: Space-Track

Epoca: Sep 14, 2026, 06:14 UTC

1 18592U 81053LU  26257.26011108  .00002338  00000-0  82282-3 0  9994
2 18592  82.9374   0.2281 0009628 217.0148 172.0700 14.34509561716482

Traccia COSMOS 1275 DEB in tempo reale con AllMySat

Download on the App Store